This demonstration page uses our WeatherBlox Daily Observations layout. Learn more.

Left ArrowRight Arrow

Hourly Observations for November 29, 2022

Temp ( °F °C ) Dew Point ( °F °C ) Humidity (%) Winds ( mph kmh ) Pressure ( in mb ) Visibility ( mi km ) Precip ( " mm )
12:53 am 00:53 Cloudy 38 3.3 25 -3.9 59 59 NNE 22 35 29.55 1001 10 16 0.00 0.00
5:53 am 05:53 Cloudy with Mist and Fog 29 -1.7 26 -3.3 89 89 N 25 41 29.59 1002 5 8 0.01 0.13
6:42 am 06:42 Cloudy with Light Wintry Mix 29 -1.7 25 -3.9 85 85 N 29 46 29.71 1006 8 13 0.01 0.13
6:53 am 06:53 Cloudy 29 -1.7 25 -3.9 85 85 N 29 46 29.65 1004 10 16 0.01 0.13
7:09 am 07:09 Cloudy with Light Freezing Rain 28 -2.2 25 -3.9 88 88 N 30 48 29.73 1007 9 14 0.01 0.13
7:30 am 07:30 Windy with Snow Likely 27 -2.8 23 -5 85 85 N 32 52 29.76 1008 7 11 0.01 0.13
7:53 am 07:53 Windy with Snow Likely 27 -2.8 24 -4.4 89 89 N 24 39 29.70 1006 5 8 0.01 0.13
8:28 am 08:28 Windy with Snow Likely 26 -3.3 22 -5.6 84 84 N 29 46 29.77 1008 3 5 0.01 0.13
8:36 am 08:36 Windy with Snow Likely 26 -3.3 23 -5 88 88 N 26 43 29.78 1008 3 5 0.01 0.13
8:51 am 08:51 Windy with Snow Likely 25 -4 19 -7 80 80 N 31 50 29.82 1010 9 14 0.01 0.13
8:53 am 08:53 Windy with Snow Likely 24 -4.4 20 -6.7 84 84 N 30 48 29.74 1007 9 14 0.01 0.13
9:55 am 09:55 Windy with Snow Likely 24 -4.4 20 -6.7 84 84 N 22 35 29.85 1011 3 4 0.01 0.13
10:04 am 10:04 Windy with Snow Likely 24 -4.4 19 -7.2 81 81 N 26 43 29.86 1011 3 4 0.01 0.13
10:13 am 10:13 Windy with Snow Likely 23 -5 19 -7.2 84 84 N 29 46 29.87 1012 4 6 0.01 0.13
10:41 am 10:41 Windy with Snow Likely 23 -5 19 -7.2 84 84 N 25 41 29.89 1012 2 3 0.01 0.13
10:49 am 10:49 Windy with Snow Likely 23 -5 19 -7 86 86 N 23 37 29.89 1012 1 2 0.01 0.13
10:53 am 10:53 Windy with Snow Likely 23 -5 19 -7.2 84 84 N 23 37 29.81 1010 1 2 0.01 0.13
11:24 am 11:24 Windy with Snow Likely 22 -5.6 19 -7.2 88 88 NNW 26 43 29.91 1013 2 3 0.01 0.13
11:36 am 11:36 Windy with Snow Likely 22 -5.6 18 -7.8 84 84 N 24 39 29.92 1013 2 2 0.01 0.13
11:53 am 11:53 Cloudy with Light Snow 22 -5.6 19 -7.2 88 88 N 18 30 29.84 1010 2 3 0.01 0.13
12:53 pm 12:53 Mostly Cloudy with Light Snow 24 -4.4 18 -7.8 77 77 NNW 25 41 29.87 1011 5 8 0.01 0.13
1:03 pm 13:03 Mostly Cloudy 24 -4.4 17 -8.3 74 74 NNW 22 35 29.94 1014 10 16 0.01 0.13
1:53 pm 13:53 Mostly Cloudy 25 -3.9 15 -9.4 65 65 NNW 20 31 29.89 1012 10 16 0.01 0.13
2:53 pm 14:53 Partly Cloudy 26 -3.3 15 -9.4 63 63 NW 20 31 29.91 1013 10 16 0.00 0.00
3:53 pm 15:53 Sunny 25 -3.9 13 -10.6 60 60 NW 22 35 29.97 1015 10 16 0.00 0.00
4:53 pm 16:53 Sunny 24 -4.4 13 -10.6 62 62 NW 20 31 30.02 1017 10 16 0.00 0.00
5:53 pm 17:53 Mostly Cloudy 23 -5 12 -11.1 62 62 NNW 14 22 30.06 1018 10 16 0.00 0.00
6:53 pm 18:53 Mostly Clear 20 -6.7 12 -11.1 71 71 WNW 10 17 30.09 1019 10 16 0.00 0.00
7:53 pm 19:53 Clear 19 -7.2 10 -12.2 67 67 W 10 17 30.13 1020 10 16 0.00 0.00
8:53 pm 20:53 Clear 19 -7.2 10 -12.2 67 67 WNW 13 20 30.16 1021 10 16 0.00 0.00
9:53 pm 21:53 Clear 17 -8.3 9 -12.8 70 70 WNW 13 20 30.19 1022 10 16 0.00 0.00
10:53 pm 22:53 Clear 16 -8.9 8 -13.3 70 70 WNW 12 19 30.22 1023 10 16 0.00 0.00
11:53 pm 23:53 Clear 15 -9.4 8 -13.3 73 73 W 10 17 30.24 1024 10 16 0.00 0.00

Powered by AerisWeather